Victorville, CA

8:31 AM PDT on September 28, 2016 (GMT -0700)
Southern California Logistics

Weather History for KVCV - August, 2013

Change the Weather History Date:

Thursday, August 22, 2013

  Actual Average (KSBD) Record (KSBD)
Temperature  
Mean Temperature 83 °F -  
Max Temperature 100 °F 94 °F 100 °F (2013)
Min Temperature 66 °F 60 °F 62 °F (2011)
Cooling Degree Days 18    
Growing Degree Days 33 (Base 50)    
Moisture  
Dew Point 37 °F    
Average Humidity 19    
Maximum Humidity 32    
Minimum Humidity 12    
Precipitation  
Precipitation 0.00 in - - ()
Sea Level Pressure  
Sea Level Pressure 29.98 in    
Wind  
Wind Speed 7 mph (South)    
Max Wind Speed 23 mph    
Max Gust Speed 26 mph    
Visibility 10 miles    
Events      
Averages and records for this station are not official NWS values.
T = Trace of Precipitation, MM = Missing Value Source: NWS Daily Summary

Daily Weather History Graph

Daily Weather History Graph

Search for Another Location

Airport or City:

Trip Planner

Search our weather history database for the weather conditions in past years. The results will help you decide how hot, cold, wet, or windy it might be!

Date:

Astronomy

Aug. 22, 2013 Rise Set
Actual Time 6:15 AM PDT 7:28 PM PDT
Civil Twilight 5:49 AM PDT 7:54 PM PDT
Nautical Twilight 5:18 AM PDT 8:25 PM PDT
Astronomical Twilight 4:45 AM PDT 8:58 PM PDT
Moon 8:23 PM PDT (8/22) 8:02 AM PDT (8/22)
Length of Visible Light 14h 05m
Length of Day
13h 12m
Waning Gibbous, 96% of the Moon is Illuminated
Aug 22
Waning Gibbous
Aug 28
Last Quarter
Sep 5
New
Sep 12
First Quarter
Sep 19
Full

Hourly Weather History & Observations

Time (PDT) Temp. Dew Point Humidity Pressure Visibility Wind Dir Wind Speed Gust Speed Precip Events Conditions
12:15 AM 78.8 °F 37.4 °F 23% 30.02 in 10.0 mi SSW 6.9 mph - N/A   Clear
12:35 AM 77.0 °F 37.4 °F 24% 30.02 in 10.0 mi South 9.2 mph - N/A   Clear
12:55 AM 77.0 °F 37.4 °F 24% 30.01 in 10.0 mi SSW 9.2 mph - N/A   Clear
1:15 AM 75.2 °F 35.6 °F 24% 30.01 in 10.0 mi SSW 6.9 mph - N/A   Clear
1:35 AM 75.2 °F 35.6 °F 24% 30.01 in 10.0 mi South 10.4 mph - N/A   Clear
1:55 AM 75.2 °F 35.6 °F 24% 30.00 in 10.0 mi South 11.5 mph - N/A   Clear
2:15 AM 75.2 °F 33.8 °F 22% 30.00 in 10.0 mi South 10.4 mph - N/A   Clear
2:35 AM 75.2 °F 33.8 °F 22% 30.00 in 10.0 mi SW 5.8 mph - N/A   Clear
2:55 AM 75.2 °F 33.8 °F 22% 30.01 in 10.0 mi Calm Calm - N/A   Clear
3:15 AM 73.4 °F 33.8 °F 23% 30.01 in 10.0 mi Calm Calm - N/A   Clear
3:35 AM 73.4 °F 33.8 °F 23% 30.01 in 10.0 mi Calm Calm - N/A   Clear
3:55 AM 73.4 °F 33.8 °F 23% 30.00 in 10.0 mi Calm Calm - N/A   Clear
4:15 AM 73.4 °F 33.8 °F 23% 30.00 in 10.0 mi Calm Calm - N/A   Clear
4:35 AM 73.4 °F 33.8 °F 23% 30.00 in 10.0 mi Calm Calm - N/A   Clear
4:55 AM 71.6 °F 33.8 °F 25% 30.00 in 10.0 mi West 4.6 mph - N/A   Clear
5:15 AM 71.6 °F 33.8 °F 25% 30.01 in 10.0 mi SE 3.5 mph - N/A   Clear
5:35 AM 71.6 °F 33.8 °F 25% 30.01 in 10.0 mi Calm Calm - N/A   Clear
5:55 AM 69.8 °F 33.8 °F 27% 30.01 in 10.0 mi Calm Calm - N/A   Clear
6:15 AM 69.8 °F 35.6 °F 28% 30.02 in 10.0 mi SW 3.5 mph - N/A   Clear
6:35 AM 69.8 °F 35.6 °F 28% 30.02 in 10.0 mi WSW 3.5 mph - N/A   Clear
6:55 AM 69.8 °F 37.4 °F 31% 30.02 in 7.0 mi Calm Calm - N/A   Clear
7:15 AM 66.2 °F 35.6 °F 32% 30.03 in 10.0 mi SW 4.6 mph - N/A   Clear
7:35 AM 69.8 °F 35.6 °F 28% 30.03 in 10.0 mi SW 3.5 mph - N/A   Clear
7:55 AM 73.4 °F 37.4 °F 27% 30.03 in 10.0 mi Calm Calm - N/A   Clear
8:15 AM 75.2 °F 37.4 °F 25% 30.03 in 10.0 mi Calm Calm - N/A   Clear
8:35 AM 78.8 °F 35.6 °F 21% 30.03 in 10.0 mi Calm Calm - N/A   Clear
8:55 AM 80.6 °F 35.6 °F 20% 30.03 in 10.0 mi Calm Calm - N/A   Clear
9:15 AM 82.4 °F 35.6 °F 19% 30.03 in 10.0 mi Calm Calm - N/A   Clear
9:35 AM 86.0 °F 35.6 °F 17% 30.03 in 10.0 mi Calm Calm - N/A   Clear
9:55 AM 87.8 °F 35.6 °F 16% 30.03 in 10.0 mi Calm Calm - N/A   Scattered Clouds
10:15 AM 87.8 °F 35.6 °F 16% 30.02 in 10.0 mi NNE 4.6 mph - N/A   Scattered Clouds
10:35 AM 89.6 °F 35.6 °F 15% 30.02 in 10.0 mi North 3.5 mph - N/A   Clear
10:55 AM 89.6 °F 33.8 °F 14% 30.02 in 10.0 mi NNE 5.8 mph - N/A   Scattered Clouds
11:15 AM 91.4 °F 35.6 °F 14% 30.02 in 10.0 mi NNE 3.5 mph - N/A   Scattered Clouds
11:35 AM 91.4 °F 35.6 °F 14% 30.01 in 10.0 mi North 4.6 mph - N/A   Scattered Clouds
11:55 AM 93.2 °F 37.4 °F 14% 30.00 in 10.0 mi NNE 9.2 mph - N/A   Scattered Clouds
12:15 PM 95.0 °F 37.4 °F 13% 29.99 in 10.0 mi NE 8.1 mph - N/A   Scattered Clouds
12:35 PM 96.8 °F 39.2 °F 14% 29.99 in 10.0 mi NE 5.8 mph - N/A   Scattered Clouds
12:55 PM 96.8 °F 39.2 °F 14% 29.98 in 10.0 mi SE 6.9 mph - N/A   Scattered Clouds
1:15 PM 98.6 °F 39.2 °F 13% 29.97 in 10.0 mi South 6.9 mph - N/A   Scattered Clouds
1:35 PM 98.6 °F 39.2 °F 13% 29.97 in 10.0 mi South 13.8 mph 19.6 mph N/A   Scattered Clouds
1:55 PM 100.4 °F 39.2 °F 12% 29.96 in 10.0 mi SE 18.4 mph 25.3 mph N/A   Scattered Clouds
2:15 PM 96.8 °F 39.2 °F 14% 29.96 in 10.0 mi SSE 19.6 mph 24.2 mph N/A   Scattered Clouds
2:35 PM 96.8 °F 39.2 °F 14% 29.95 in 10.0 mi South 18.4 mph - N/A   Scattered Clouds
2:55 PM 96.8 °F 39.2 °F 14% 29.94 in 10.0 mi SSE 18.4 mph - N/A   Scattered Clouds
3:15 PM 98.6 °F 39.2 °F 13% 29.92 in 10.0 mi South 16.1 mph - N/A   Scattered Clouds
3:35 PM 98.6 °F 39.2 °F 13% 29.91 in 10.0 mi South 16.1 mph 23.0 mph N/A   Scattered Clouds
3:55 PM 100.4 °F 39.2 °F 12% 29.90 in 10.0 mi South 19.6 mph 26.5 mph N/A   Scattered Clouds
4:15 PM 98.6 °F 39.2 °F 13% 29.90 in 10.0 mi South 18.4 mph 25.3 mph N/A   Scattered Clouds
4:35 PM 96.8 °F 39.2 °F 14% 29.89 in 10.0 mi South 21.9 mph 26.5 mph N/A   Scattered Clouds
4:55 PM 98.6 °F 39.2 °F 13% 29.89 in 10.0 mi South 23.0 mph 26.5 mph N/A   Scattered Clouds
5:15 PM 96.8 °F 39.2 °F 14% 29.89 in 10.0 mi South 17.3 mph 25.3 mph N/A   Clear
5:35 PM 96.8 °F 39.2 °F 14% 29.89 in 10.0 mi South 15.0 mph - N/A   Clear
5:55 PM 96.8 °F 39.2 °F 14% 29.89 in 10.0 mi South 15.0 mph - N/A   Clear
6:15 PM 96.8 °F 39.2 °F 14% 29.89 in 10.0 mi South 17.3 mph 21.9 mph N/A   Clear
6:35 PM 93.2 °F 37.4 °F 14% 29.90 in 10.0 mi South 16.1 mph - N/A   Scattered Clouds
6:55 PM 93.2 °F 37.4 °F 14% 29.91 in 10.0 mi SSW 6.9 mph - N/A   Scattered Clouds
7:15 PM 91.4 °F 37.4 °F 15% 29.92 in 10.0 mi West 4.6 mph - N/A   Clear
7:35 PM 91.4 °F 35.6 °F 14% 29.93 in 10.0 mi WSW 4.6 mph - N/A   Clear
7:55 PM 89.6 °F 37.4 °F 16% 29.93 in 10.0 mi SSE 6.9 mph - N/A   Clear
8:15 PM 87.8 °F 37.4 °F 17% 29.94 in 10.0 mi Calm Calm - N/A   Clear
8:35 PM 86.0 °F 37.4 °F 18% 29.95 in 10.0 mi Calm Calm - N/A   Clear
8:55 PM 86.0 °F 37.4 °F 18% 29.96 in 10.0 mi Calm Calm - N/A   Clear
9:15 PM 84.2 °F 37.4 °F 19% 29.97 in 10.0 mi Calm Calm - N/A   Clear
9:35 PM 82.4 °F 37.4 °F 20% 29.97 in 10.0 mi Calm Calm - N/A   Clear
9:55 PM 82.4 °F 37.4 °F 20% 29.98 in 10.0 mi Calm Calm - N/A   Clear
10:15 PM 80.6 °F 39.2 °F 23% 29.97 in 10.0 mi Calm Calm - N/A   Clear
10:35 PM 80.6 °F 37.4 °F 21% 29.97 in 10.0 mi SSW 4.6 mph - N/A   Clear
10:55 PM 78.8 °F 35.6 °F 21% 29.97 in 10.0 mi South 6.9 mph - N/A   Clear
11:15 PM 78.8 °F 35.6 °F 21% 29.97 in 10.0 mi South 9.2 mph - N/A   Clear
11:35 PM 78.8 °F 35.6 °F 21% 29.98 in 10.0 mi SSE 9.2 mph - N/A   Clear
11:55 PM 78.8 °F 33.8 °F 20% 29.97 in 10.0 mi South 9.2 mph - N/A   Clear